Location: Taukkyan
(23.1052°N, 94.0030°E)
Time: 11:29:17
(UTC+00:00)

Cosmos 1844 Rocket - Pass Details

Date: 06 July 2020
Orbit: 826 x 843 km, 71.0° (Epoch: 14 August)

Event Time Altitude Azimuth Distance (km) Brightness Sun altitude
Rises 14:08:07 0° 5° (N) 3,360 6.3 -19.5°
Reaches altitude 10° 14:11:31 10° 26° (NNE) 2,425 5.2 -20.1°
Maximum altitude 14:14:55 16° 64° (ENE) 2,010 4.4 -20.8°
Enters shadow 14:15:05 16° 67° (ENE) 2,011 4.4 -20.8°
